Location: Preissac
(48.4072°N, 78.3618°W)
Time: 03:32:58
(UTC-04:00)

Envisat - Pass Details

Date: 26 August 2019
Orbit: 764 x 766 km, 98.1° (Epoch: 20 September)

Event Time Altitude Azimuth Distance (km) Brightness Sun altitude
Rises 20:53:07 0° 216° (SW) 3,222 6.4 -7.9°
Reaches altitude 10° 20:56:34 10° 241° (WSW) 2,302 6.0 -8.4°
Maximum altitude 20:59:13 14° 273° (W) 2,030 6.3 -8.8°
Drops below altitude 10° 21:01:52 10° 305° (NW) 2,311 7.1 -9.2°
Sets 21:05:22 0° 330° (NNW) 3,244 7.3 -9.8°
